Dewpoint
15 17 18 17 15 12 12 15 18 19 18 19 22 29 31 29 28 33 35 34 32 32 34 35 37 37 36 36 37 37 36 37 38 39 39 39 38 38 37 36 35 34 32 31
3 11 15 14 13 11 9 7 9 15 17 24 28 29 30 25 23 27 34 33 32 34 35 35 36 35 35 36 36 36 36 36 38 39 38 38 37 37 36 36 34 31 28 27
1 8 5 -0 4 3 0 3 5 6 13 26 27 27 23 19 19 19 27 32 32 33 34 34 34 34 35 35 36 36 36 37 38 38 38 37 37 37 36 34 31 28 25 25
6 4 -8 -5 6 4 5 11 20 21 21 21 20 20 22 20 20 20 20 23 27 37 34 35 35 35 35 35 35 35 35 36 38 38 37 37 37 36 35 34 30 27 24 25
5 4 4 4 1 -1 3 10 29 24 21 19 20 22 24 24 25 22 21 22 27 37 36 34 35 36 35 34 35 35 35 36 37 37 37 37 36 35 35 34 30 29 25 25
9 7 4 9 19 20 13 13 29 30 23 18 15 16 18 21 25 27 23 23 25 41 34 34 35 35 35 34 34 34 35 36 37 37 36 36 35 34 34 35 32 30 25 24
11 11 10 20 15 20 12 20 28 28 27 26 19 17 17 15 18 27 27 23 23 41 34 34 35 36 35 34 33 34 35 36 37 36 36 35 35 34 34 34 34 31 29 25
8 7 9 12 15 18 22 28 26 26 21 21 23 14 13 14 15 23 27 27 21 21 39 36 36 36 34 34 34 34 35 36 36 36 35 35 35 34 34 33 34 33 30 26
17 15 16 16 13 14 29 21 20 23 18 18 15 9 9 9 16 22 23 28 26 23 26 41 35 35 34 34 34 34 35 35 35 35 35 35 35 34 33 33 32 33 31 27
5 5 7 10 10 8 12 11 10 9 8 9 9 9 8 9 17 22 26 23 28 26 21 31 38 34 34 34 33 34 34 34 35 34 34 35 35 34 33 32 31 31 31 29
4 7 8 9 9 10 11 10 10 10 9 9 8 7 7 9 9 19 29 25 28 27 23 19 26 35 34 33 33 33 33 34 34 34 34 34 34 34 33 32 32 31 31 29
7 8 8 9 11 12 12 12 10 10 10 9 9 8 9 9 8 15 26 30 24 29 26 20 19 36 33 33 33 32 32 33 33 33 34 34 33 31 32 32 31 31 32 30
11 12 12 12 13 14 13 12 12 12 11 10 11 10 9 8 7 8 22 25 29 28 31 27 20 21 35 33 33 32 31 32 33 32 33 33 31 30 30 31 32 32 32 32
14 15 15 17 15 14 13 13 13 13 12 11 10 9 9 9 9 8 8 15 29 29 29 31 23 23 35 33 32 31 31 31 32 32 33 32 30 30 30 30 30 30 31 30
16 15 17 17 13 12 13 13 12 11 11 11 11 11 11 10 10 10 10 10 19 30 30 32 25 24 36 34 32 31 31 31 31 33 32 31 30 30 30 30 28 26 26 27
16 16 15 14 15 14 14 14 15 15 14 14 14 14 15 15 13 12 11 11 14 24 28 31 29 26 35 34 32 31 31 31 32 32 31 30 29 29 29 28 26 26 25 24
13 11 12 13 13 14 14 15 15 14 15 16 16 16 17 17 18 17 15 13 13 20 30 30 30 27 32 35 32 31 31 31 32 32 30 30 29 28 28 27 26 25 23 21
13 13 14 15 15 14 14 15 16 16 16 17 18 18 20 22 21 21 21 20 18 16 25 31 30 28 29 35 32 32 32 31 32 31 31 30 29 29 28 27 26 24 22 18
16 17 17 19 19 19 19 19 19 19 19 21 23 23 22 21 20 21 22 23 22 19 21 29 30 29 29 35 33 33 32 31 32 32 31 30 29 29 28 27 26 24 21 17
18 18 17 17 19 21 21 20 19 20 20 20 21 20 19 20 22 24 25 25 24 22 22 27 30 28 24 34 32 34 32 31 32 32 31 30 30 30 29 29 27 24 22 18
9 12 14 14 15 17 18 18 19 19 20 21 22 24 24 22 24 25 26 26 26 25 22 26 29 27 26 32 33 34 32 32 32 32 31 30 30 29 28 26 24 23 22 18
11 13 12 13 16 19 21 23 25 27 27 26 26 25 25 24 24 26 27 26 27 25 24 26 27 27 28 32 34 33 32 32 32 32 31 31 30 30 29 27 25 23 21 18
9 11 12 14 19 24 27 27 26 27 28 28 28 28 27 26 27 27 26 27 28 26 23 23 24 25 27 33 34 33 32 32 32 32 32 32 31 31 31 29 27 25 21 19
12 14 16 18 18 18 24 26 25 26 27 29 30 31 30 28 27 28 28 28 28 26 24 25 26 26 30 34 34 33 32 32 32 32 32 32 32 32 31 29 27 25 22 20
17 18 18 16 18 23 27 29 29 31 32 32 34 35 33 32 29 28 29 29 26 24 24 28 27 29 33 34 34 33 33 33 33 33 33 33 32 32 31 29 28 25 22 23
16 16 17 20 23 27 29 30 30 32 33 33 34 35 34 33 32 30 30 29 26 27 27 28 30 32 33 34 33 33 33 33 33 33 33 32 32 31 30 29 28 25 23 24
16 19 23 24 25 26 29 31 31 31 30 31 29 31 34 34 34 32 27 26 26 28 30 31 32 33 33 34 33 33 33 33 32 32 32 32 32 31 30 29 28 25 25 24
Wind_Speed
10 12 14 18 16 6 8 12 7 17 23 16 16 20 22 23 33 38 14 27 28 26 24 24 26 24 22 23 25 24 26 25 24 22 21 21 21 20 19 19 18 17 17 15
14 9 11 18 23 15 14 16 19 22 30 2 12 17 22 26 31 34 18 23 17 18 24 30 29 28 27 26 25 24 23 24 22 23 23 22 21 20 20 18 19 18 16 16
7 12 12 14 17 20 14 13 13 18 21 17 14 12 16 23 25 28 29 24 16 29 28 28 34 35 31 30 28 27 25 23 24 25 24 22 21 21 21 21 19 19 17 15
7 10 11 7 15 15 14 10 15 14 16 17 19 19 13 21 24 25 30 29 29 24 29 30 31 31 31 33 32 30 28 26 26 26 26 24 23 21 21 20 22 20 17 15
4 8 15 17 8 4 7 6 18 17 20 22 25 13 5 31 27 23 28 32 30 31 30 30 34 31 30 31 32 31 30 29 28 28 26 24 25 24 22 22 20 19 16 16
6 5 6 7 21 24 13 5 15 16 18 21 23 15 16 29 28 29 30 36 42 31 23 27 29 31 31 33 32 32 31 30 28 28 28 28 24 24 21 21 21 17 16 15
15 14 7 13 21 22 6 2 14 15 13 15 12 5 13 21 25 25 27 39 42 20 25 31 33 34 33 34 34 33 30 28 29 27 27 26 24 21 21 21 21 19 18 14
8 12 15 22 10 8 8 6 10 5 10 11 12 12 16 20 24 24 29 33 36 34 24 7 28 33 33 34 30 29 28 29 29 27 25 24 27 23 22 21 22 20 19 15
4 5 21 10 9 14 8 11 13 6 9 13 12 16 19 22 19 22 25 26 27 30 26 19 16 23 30 28 29 31 31 30 30 29 28 26 28 26 24 22 21 20 19 17
14 7 16 23 20 22 9 10 12 7 12 15 14 19 20 22 15 15 20 23 22 27 29 22 13 22 21 26 29 32 32 30 29 30 28 28 25 25 25 25 23 21 21 19
23 22 22 25 24 10 18 24 16 12 15 16 15 19 21 18 19 13 12 21 21 22 26 27 31 18 21 27 30 31 30 28 28 26 27 26 25 26 25 23 26 26 23 22
28 26 25 31 23 26 24 16 23 25 21 16 19 20 19 17 16 17 9 13 22 21 22 28 28 19 24 28 32 33 30 28 27 26 24 25 22 14 8 19 23 22 21 21
29 29 32 35 29 23 26 30 29 23 23 18 14 13 18 26 26 20 13 13 9 20 27 26 30 30 25 32 33 33 32 29 27 26 26 26 23 23 22 6 18 25 25 25
24 26 30 23 21 20 23 26 26 23 25 24 22 24 24 25 25 25 19 16 10 11 21 29 28 34 25 30 33 32 31 32 30 27 28 25 26 25 22 26 21 12 15 26
30 32 29 30 28 28 26 25 27 27 28 27 26 25 20 22 26 28 23 20 15 8 10 25 26 37 19 29 32 32 29 28 27 25 22 25 25 23 24 22 23 19 16 8
29 28 28 29 29 25 24 26 23 23 23 24 22 19 16 18 21 26 25 22 20 16 10 16 25 29 24 28 32 28 27 29 27 25 24 24 24 25 23 22 21 22 20 22
24 27 27 26 27 26 24 27 26 26 22 18 19 19 21 22 23 28 30 29 24 21 12 8 25 30 27 27 30 29 26 27 29 24 27 26 26 26 26 24 24 21 20 21
31 30 27 21 16 17 19 23 23 23 25 24 24 24 24 23 26 26 28 27 28 27 19 12 19 29 24 26 28 24 26 30 28 28 27 27 26 24 24 24 23 24 18 19
14 13 14 17 19 22 24 25 25 26 28 26 24 26 25 26 31 31 29 30 32 30 31 12 18 26 19 24 28 24 25 27 26 23 24 25 24 23 23 23 23 23 21 21
14 16 20 24 25 25 26 28 30 31 31 29 30 33 35 35 30 26 27 36 36 35 22 13 15 20 12 11 26 24 25 28 28 25 25 26 27 26 24 24 23 23 23 22
22 24 23 23 25 26 26 28 31 35 34 34 36 38 36 32 30 27 30 34 40 33 24 20 20 22 13 12 23 23 24 24 25 26 27 28 26 23 24 24 23 23 23 23
22 20 22 24 28 33 35 34 33 36 38 39 39 38 36 36 33 32 36 39 26 25 20 20 21 22 17 16 22 24 24 26 26 24 24 24 25 25 24 24 24 22 21 22
24 24 28 34 36 36 35 37 40 40 42 40 41 40 39 35 30 31 35 38 32 30 23 21 21 22 19 20 24 24 26 26 26 27 26 26 27 27 26 25 23 23 22 23
27 31 34 33 34 35 40 40 38 37 37 38 40 40 37 33 32 34 33 24 29 29 25 20 22 23 22 22 25 24 25 25 25 25 24 24 23 23 23 23 23 22 21 22
30 35 37 36 35 32 33 36 36 35 34 35 35 36 34 32 33 27 27 27 29 26 25 24 26 25 22 22 23 25 25 25 24 24 25 25 25 25 23 22 22 23 23 23
33 31 31 34 32 32 32 31 29 26 26 18 12 15 22 26 27 27 29 31 26 25 22 20 21 20 20 21 22 24 24 23 24 24 25 24 23 24 23 21 20 21 21 21
28 29 29 29 29 28 27 29 22 24 19 15 12 11 11 19 24 24 25 25 25 24 21 19 19 20 21 21 22 22 22 22 24 23 23 23 23 22 22 22 21 20 20 20
Wind_Direction
318 307 303 299 293 291 271 275 270 284 305 311 340 10 1 355 355 343 200 170 171 166 166 163 160 161 168 164 163 164 160 161 161 154 150 151 152 148 144 142 135 134 133 131
300 262 266 276 284 289 267 261 249 263 282 18 327 25 18 6 5 0 353 170 162 161 163 165 164 166 169 169 168 166 166 164 157 154 153 159 154 147 143 137 134 136 141 144
278 6 332 283 259 257 263 258 246 257 277 19 350 9 42 16 6 359 351 345 187 168 173 183 180 173 175 170 162 167 169 164 161 159 160 160 157 151 150 146 140 143 146 149
288 328 268 250 331 321 307 330 14 349 17 14 347 315 71 22 1 354 346 330 311 256 192 186 181 179 166 167 167 166 167 169 166 165 164 162 159 157 153 149 151 152 153 154
238 238 286 298 288 338 354 332 21 4 11 10 352 318 98 1 350 345 341 323 313 301 212 180 179 176 170 167 166 168 171 171 170 169 165 163 164 162 158 152 152 155 156 155
186 234 253 5 356 349 306 275 3 6 7 5 16 21 339 336 335 337 346 336 331 307 192 184 178 170 169 171 172 174 174 174 173 168 164 167 166 165 162 155 155 150 154 158
246 239 262 14 340 327 251 9 339 337 333 340 352 340 319 332 341 341 347 344 350 343 178 183 173 170 175 173 179 178 170 166 168 170 167 164 158 162 158 155 153 153 154 157
253 240 239 7 9 16 327 310 262 305 320 315 322 336 343 338 340 352 349 348 351 356 355 218 179 174 177 183 173 165 164 164 165 164 164 162 161 159 162 156 152 154 154 157
270 276 307 337 323 311 243 293 318 287 310 338 328 338 338 334 338 351 342 341 342 346 344 344 208 199 178 179 166 162 163 166 164 163 165 167 168 167 165 162 159 162 162 163
284 280 268 305 307 294 311 313 307 317 330 325 321 329 330 329 328 343 338 340 335 342 339 339 301 209 199 174 168 163 164 166 166 169 168 169 173 173 174 174 168 167 167 169
274 282 280 265 272 275 302 299 289 306 302 299 306 310 308 314 323 330 330 335 337 328 330 337 336 225 190 180 166 168 165 166 168 172 169 173 176 179 181 184 178 176 176 171
262 274 273 276 274 278 272 277 290 290 286 279 285 283 288 304 313 318 307 328 331 321 324 326 326 288 186 183 172 167 165 169 171 171 172 174 169 157 143 175 176 172 166 170
257 263 263 268 269 263 275 277 276 273 266 270 266 287 294 293 293 293 278 274 315 319 313 314 321 319 205 183 177 173 171 172 172 172 174 170 162 162 161 123 169 171 167 165
254 260 264 263 255 255 259 262 268 266 269 266 269 275 273 271 277 283 281 276 264 288 310 310 309 308 214 187 179 177 175 174 173 174 173 167 168 166 167 166 170 167 170 165
250 250 247 254 262 266 263 264 263 264 265 265 264 261 253 268 272 275 279 284 271 251 306 300 312 319 207 185 180 179 172 173 173 172 167 167 165 166 167 171 160 159 142 145
245 246 250 253 258 256 264 262 257 261 261 265 261 252 259 269 271 273 277 281 276 259 269 295 302 299 301 188 183 178 175 171 166 164 160 164 165 166 166 166 162 162 167 161
249 260 258 259 261 259 255 254 257 263 260 253 256 262 264 265 270 271 273 271 270 267 232 251 284 286 309 196 186 178 171 168 166 159 166 169 170 172 170 169 168 170 178 168
250 252 256 258 257 262 263 261 259 258 258 259 258 255 254 253 258 263 266 274 275 265 242 223 261 270 288 208 184 180 172 168 169 169 169 170 173 173 172 171 172 170 174 172
248 256 267 263 263 263 265 262 259 259 259 255 251 247 245 250 258 258 258 260 265 262 254 224 247 259 313 206 181 176 175 173 170 168 171 169 168 170 172 174 175 173 171 172
275 276 274 267 266 262 261 263 264 261 255 252 250 251 255 258 255 246 246 250 248 250 256 218 242 266 276 242 181 172 177 175 172 169 168 170 172 172 174 170 176 175 170 178
277 272 266 266 269 268 265 268 269 267 265 263 259 258 256 253 243 238 239 244 245 247 242 229 228 252 259 238 184 176 178 177 174 171 171 173 172 173 170 171 175 178 178 178
273 266 274 283 283 285 284 278 270 267 262 258 253 250 247 244 238 233 232 237 246 243 220 217 217 235 231 204 185 181 183 179 175 173 172 170 171 172 174 175 173 178 180 180
284 280 289 297 294 282 280 280 275 269 264 258 253 245 237 236 228 224 232 232 229 233 218 212 211 219 212 199 191 187 182 182 176 176 176 175 175 173 173 175 175 176 178 178
289 292 293 284 286 285 281 278 274 270 265 261 252 245 234 225 224 223 229 227 225 223 219 205 203 212 204 193 191 184 180 181 179 176 174 171 170 168 169 165 169 176 176 174
294 291 290 290 290 286 284 282 282 280 272 269 258 239 221 212 215 216 212 215 216 203 203 196 201 203 195 187 186 180 178 176 175 171 169 169 169 167 169 167 173 176 173 173
289 287 288 288 285 285 284 282 277 276 273 263 267 218 206 203 202 203 202 206 201 194 191 192 195 190 184 182 180 173 172 172 168 169 168 169 166 164 163 163 167 173 173 174
287 289 289 288 286 284 283 278 279 285 258 226 222 193 181 182 181 181 184 184 185 184 180 180 178 180 176 173 171 169 164 164 168 166 167 164 162 165 164 166 168 169 169 170